Regional Weather Roundup
Issued by NWS

Home | Current Version | Previous Version | Graphics & Text | Print | Product List | Glossary On
Versions: 1 2 3 4 5 6 7 8 9 10 11 12 13 14 15 16 17 18 19 20 21 22 23 24 25 26 27 28 29 30 31 32 33 34 35 36 37 38 39 40 41 42 43 44 45 46 47 48 49 50
000
ASUS43 KMKX 211220
RWRWI

WISCONSIN REGIONAL WEATHER ROUNDUP
NATIONAL WEATHER SERVICE MILWAUKEE/SULLIVAN WI
600 AM CST WED FEB 21 2018

NOTE: "FAIR" INDICATES FEW OR NO CLOUDS BELOW 12,000 FEET WITH NO
SIGNIFICANT WEATHER AND/OR OBSTRUCTIONS TO VISIBILITY.

WIZ001-002-006>008-014>016-023>028-211300-
NORTHWEST WISCONSIN

CITY           SKY/WX    TMP DP  RH WIND       PRES   REMARKS
SUPERIOR ARPT  FAIR      -1  -6  82 SW7       30.46R WCI -15
6HR MIN TEMP:  -1; 6HR MAX TEMP:   8;

ASHLAND        FAIR       0  -5  79 SW9       30.43R WCI -15
6HR MIN TEMP:   0; 6HR MAX TEMP:   8;

HAYWARD        FAIR      -3  -7  82 SW3       30.42R
6HR MIN TEMP:  -3; 6HR MAX TEMP:  10;

SIREN          FAIR       0  -4  83 W8        30.47R WCI -14
6HR MIN TEMP:  -1; 6HR MAX TEMP:   7;

CUMBERLAND     FAIR      -4  -8  84 W6        30.44R WCI -16
RICE LAKE      FAIR      -4  -6  89 CALM      30.48R
6HR MIN TEMP:  -4; 6HR MAX TEMP:  10;

CHETEK         FAIR      -1  -4  87 CALM      30.47R
6HR MIN TEMP:  -1; 6HR MAX TEMP:  10;

LADYSMITH      FAIR      -1  -4  84 CALM      30.46R
6HR MIN TEMP:   2; 6HR MAX TEMP:  13;

EAU CLAIRE     FAIR       2  -2  83 SW5       30.49R WCI  -8
6HR MIN TEMP:   2; 6HR MAX TEMP:  13;

MENOMONIE      FAIR       4  -1  79 SW7       30.51R WCI  -8
6HR MIN TEMP:   4; 6HR MAX TEMP:  12;

NEW RICHMOND   FAIR       0  -4  82 W6        30.49R WCI -11
6HR MIN TEMP:  -3; 6HR MAX TEMP:   8;

OSCEOLA        FAIR       0  -4  82 W5        30.53R WCI -10
6HR MIN TEMP:   0; 6HR MAX TEMP:   8;

$$

WIZ003>005-009-010-017-018-211300-
NORTH CENTRAL WISCONSIN

CITY           SKY/WX    TMP DP  RH WIND       PRES   REMARKS
MANITOWISH WTR FLURRIES   1  -1  91 W5        30.35R WCI  -9
6HR MIN TEMP:   1; 6HR MAX TEMP:  10;

ARBOR VITAE    FAIR       4   1  85 W5        30.34R WCI  -5
6HR MIN TEMP:   4; 6HR MAX TEMP:  15;

WOODRUFF       FAIR       4   1  85 W5        30.34R WCI  -5
6HR MIN TEMP:   4; 6HR MAX TEMP:  15;

RHINELANDER    FAIR       3   0  87 W8        30.35R WCI -10
6HR MIN TEMP:   3; 6HR MAX TEMP:  14;

EAGLE RIVER    FAIR       4  -1  81 W3        30.34R
6HR MIN TEMP:   4; 6HR MAX TEMP:  15;

LAND O LAKES   FLURRIES   6   3  87 W3        30.35R
6HR MIN TEMP:   7; 6HR MAX TEMP:  14;

PHILLIPS       FAIR       1  -2  88 CALM      30.39R
6HR MIN TEMP:   1; 6HR MAX TEMP:  11;

TOMAHAWK       FAIR       3   0  86 W5        30.39R WCI  -6
6HR MIN TEMP:   3; 6HR MAX TEMP:  13;

MEDFORD        FAIR       3   0  85 W5        30.40R WCI  -6
6HR MIN TEMP:   3; 6HR MAX TEMP:  13;

MERRILL        FAIR       6   3  86 W6        30.42R WCI  -4
6HR MIN TEMP:   7; 6HR MAX TEMP:  16;

$$

WIZ029-030-035-036-043>047-211300-
CENTRAL WISCONSIN

CITY           SKY/WX    TMP DP  RH WIND       PRES   REMARKS
WAUSAU         FAIR       8   4  83 W9        30.40R WCI  -5
6HR MIN TEMP:   8; 6HR MAX TEMP:  17;

MOSINEE        CLEAR      9   5  85 W9        30.42R WCI  -5
MARSHFIELD     FAIR       6   1  80 W9        30.42R WCI  -8
6HR MIN TEMP:   6; 6HR MAX TEMP:  16;

STEVENS POINT  FAIR       9   6  86 W6        30.44R WCI  -1
6HR MIN TEMP:   9; 6HR MAX TEMP:  16;

WAUPACA        FAIR      17  10  73 W6        30.46R WCI   8
6HR MIN TEMP:  17; 6HR MAX TEMP:  23;

WAUTOMA        FAIR      15  10  80 NW7       30.46R WCI   5
6HR MIN TEMP:  15; 6HR MAX TEMP:  21;

WISC RAPIDS    FAIR      11   4  73 NW8       30.46R WCI  -1
6HR MIN TEMP:  11; 6HR MAX TEMP:  18;

CAMP DOUGLAS   PTCLDY    12   7  79 NW8       30.47R WCI   1
                                      6HR PCP: TRACE;

$$

WIZ011>013-019>022-031-037>040-048>050-211300-
NORTHEAST WISCONSIN

CITY           SKY/WX    TMP DP  RH WIND       PRES   REMARKS
ANTIGO         FAIR       7   4  86 NW7       30.36R WCI  -4
6HR MIN TEMP:   7; 6HR MAX TEMP:  16;

SHAWANO        FAIR      17  10  73 W6        30.43R WCI   8
6HR MIN TEMP:  17; 6HR MAX TEMP:  26;

OCONTO         FAIR      18  10  72 NW8       30.41R WCI   8
6HR MIN TEMP:  18; 6HR MAX TEMP:  27;

STURGEON BAY   FAIR      19  14  81 W10       30.40R WCI   7
6HR MIN TEMP:  19; 6HR MAX TEMP:  29;

GREEN BAY      FAIR      19  10  68 NW13      30.42R WCI   6
6HR MIN TEMP:  19; 6HR MAX TEMP:  27;

MANITOWOC      FAIR      21  15  78 W12       30.41R WCI   9
6HR MIN TEMP:  21; 6HR MAX TEMP:  28;

APPLETON       PTCLDY    18   9  68 NW13      30.39R WCI   4
CLINTONVILLE   FAIR      16   8  72 W8        30.44R WCI   5
6HR MIN TEMP:  16; 6HR MAX TEMP:  23;

OSHKOSH        FAIR      18  11  74 NW10      30.43R WCI   6
6HR MIN TEMP:  18; 6HR MAX TEMP:  24;

$$

WIZ032>034-041-042-053>061-211300-
SOUTHWEST WISCONSIN

CITY           SKY/WX    TMP DP  RH WIND       PRES   REMARKS
LA CROSSE      FAIR      11   4  73 NW10      30.53R WCI  -3
6HR MIN TEMP:  11; 6HR MAX TEMP:  18;

SPARTA         FAIR      11   7  83 NW5       30.51R WCI   3
6HR MIN TEMP:  11; 6HR MAX TEMP:  18;

VIROQUA        FAIR      11   8  91 NW8       30.46R WCI  -1
6HR MIN TEMP:  11; 6HR MAX TEMP:  17;

BOSCOBEL       FAIR      16   8  71 NW6       30.51R WCI   7
6HR MIN TEMP:  16; 6HR MAX TEMP:  22;

PRAIRIE DU CHI FAIR      14   6  68 NW9       30.52R WCI   2
6HR MIN TEMP:  14; 6HR MAX TEMP:  19;

PLATTEVILLE    FAIR      17  14  88 NW8       30.47R WCI   7
6HR MIN TEMP:  17; 6HR MAX TEMP:  22;

$$

WIZ056-057-062-063-064-067-068-211300-
SOUTH CENTRAL WISCONSIN

CITY           SKY/WX    TMP DP  RH WIND       PRES   REMARKS
REEDSBURG      FAIR      15  11  82 N5        30.47R WCI   8
6HR MIN TEMP:  15; 6HR MAX TEMP:  21;

BARABOO/DELLS  FAIR      16  11  80 NW6       30.46R WCI   8
6HR MIN TEMP:  16; 6HR MAX TEMP:  22;

LONE ROCK      FAIR      18  12  77 NW12      30.49R WCI   5
6HR MIN TEMP:  18; 6HR MAX TEMP:  23;

MINERAL POINT  FAIR      19  18  93 NW8       30.44R WCI   9
MADISON        MOCLDY    19  12  74 N9        30.45R WCI   8
6HR MIN TEMP:  19; 6HR MAX TEMP:  24;

MIDDLETON      FAIR      22  15  75 N9        30.45R WCI  11
6HR MIN TEMP:  22; 6HR MAX TEMP:  27;

WATERTOWN      FAIR      20  14  78 NW12      30.44R WCI   8
6HR MIN TEMP:  20; 6HR MAX TEMP:  27;

MONROE         MOCLDY    23  18  80 N5        30.42R WCI  17
JANESVILLE     FAIR      25  18  74 N9        30.43R WCI  15
$$

WIZ051-052-058>065-066-070>072-211300-
SOUTHEAST WISCONSIN

CITY           SKY/WX    TMP DP  RH WIND       PRES   REMARKS
MILWAUKEE      MOCLDY    25  14  63 NW13      30.40R WCI  14
6HR MIN TEMP:  25; 6HR MAX TEMP:  31;

WAUKESHA       PTCLDY    19  16  86 NW13      30.42R WCI   7
MILWAUKEE/TIMM FAIR      23  12  63 NW14G20   30.43R WCI  11
RACINE         FAIR      25  15  66 NW12G22   30.41R WCI  14
6HR MIN TEMP:  25; 6HR MAX TEMP:  31;

BURLINGTON     FAIR      23  16  74 NW15      30.42R WCI  10
6HR MIN TEMP:  23; 6HR MAX TEMP:  29;

KENOSHA        FAIR      26  18  71 NW12      30.39R WCI  16
6HR MIN TEMP:  26; 6HR MAX TEMP:  32;

FOND DU LAC    FAIR      19  11  70 NW10      30.43R WCI   7
6HR MIN TEMP:  19; 6HR MAX TEMP:  26;

SHEBOYGAN      FAIR      21  15  78 NW13G20   30.41R WCI   9
6HR MIN TEMP:  21; 6HR MAX TEMP:  28;

WEST BEND      FAIR      21  16  79 NW13      30.42R WCI   9
JUNEAU         FAIR      19  13  79 NW6       30.44R WCI  10
6HR MIN TEMP:  19; 6HR MAX TEMP:  25;

$$

LSZ147-162-211300-
LAKE SUPERIOR

STATION/POSITION TIME  TEMP    WIND        PRES    WAVE
                       AIR SEA DIR/SP/G            HT/PER
                 (UTC) (F)     (DEG/KT/KT) (MB)    (FT/S)
DEVILS ISLAND    1200   13     270/ 12/ 15 1030.8R
SAXON HARBOR     1130    6     200/  6/  9 1029.8R
$$

LMZ867-665-643>646-211300-
LAKE MICHIGAN

STATION/POSITION TIME  TEMP    WIND        PRES    W



USA.gov is the U.S. government's official web portal to all federal, state and local government web resources and services.